Powrót do katalogu

SL-8 DEB

AktywnyLEO
NORAD 39836·DEBRIS·🇷🇺 Russia

Wystrzelony Feb 12, 1991 z Plesetsk Cosmodrome

Loading…

Następne Przeloty (najbliższe 24 godziny)

TLE

NieaktualneSource: Space-Track

Epoka: Sep 5, 2026, 03:59 UTC

1 39836U 91009DU  26248.16636134 -.00000001  00000-0  11870-3 0  9992
2 39836  73.9123  27.8581 0138218   3.0202 178.8267 12.29446981551441

Śledź SL-8 DEB w czasie rzeczywistym z AllMySat

Download on the App Store